CAPE
0 0 0 0 0 0 0 0 0 0 0 0 0 0 0 0 0 0 0 0 0 0 0 0 83 517 1607 2069 1962 1706 1308 1343 984 669 563 557 674 583 794 925 972 730 788 884
0 0 0 0 0 0 0 0 0 0 0 0 0 0 0 0 0 0 0 0 0 0 0 0 88 1020 1987 2084 1994 2050 1785 1485 1328 1162 1023 907 916 460 791 585 565 673 728 585
0 0 0 0 0 0 0 0 0 0 0 0 0 0 0 0 0 0 0 0 0 0 0 0 0 27 1668 1852 2245 2501 2309 1712 1462 1229 1061 1162 929 644 560 504 632 452 368 270
0 0 0 0 0 0 0 0 0 0 0 0 0 0 0 0 0 0 0 0 0 0 0 0 0 0 1 1431 2264 2111 2413 2273 1841 1395 1275 1171 739 521 419 360 242 281 238 148
0 0 0 0 0 0 0 0 0 0 0 0 0 0 0 0 0 0 0 0 0 0 0 0 0 0 1 40 1205 1548 1653 1790 1774 2006 1715 1158 789 532 359 263 193 143 122 39
0 0 0 0 0 0 0 0 0 0 0 0 0 0 0 0 0 0 0 0 0 0 0 0 3 1 0 0 256 988 1197 1129 1106 1517 1286 1311 908 609 445 330 161 97 28 6
0 0 0 0 0 0 0 0 0 0 0 0 0 0 0 0 0 0 0 0 0 0 0 0 0 3 0 0 5 218 704 1176 951 878 790 754 679 693 585 395 342 212 35 7
0 0 0 0 0 0 0 0 0 0 0 0 0 0 0 0 0 0 0 0 0 0 0 1 2 1 0 0 0 0 12 419 618 513 711 642 621 518 375 49 19 0 0 0
0 0 0 0 0 0 1 0 0 0 0 0 0 0 0 0 0 0 0 0 0 0 0 1 2 0 4 4 0 0 0 0 2 116 56 167 262 236 4 13 5 0 0 0
0 0 0 0 0 0 0 0 0 0 0 0 0 0 0 0 0 0 0 0 0 0 0 0 2 3 2 2 3 2 0 0 0 0 0 0 72 1 0 0 0 0 0 0
2 0 0 0 0 10 4 5 18 39 31 0 0 0 0 1 0 0 0 0 0 0 0 0 3 2 1 0 0 0 1 0 0 0 0 2 0 0 0 0 0 0 0 0
18 28 0 0 10 27 9 64 81 172 2 57 144 0 0 0 0 0 12 8 0 0 0 24 1 1 3 3 1 0 0 2 4 8 13 22 1 0 0 0 0 4 2 3
18 49 0 0 8 30 2 0 2 90 149 67 67 1 0 0 0 0 67 75 47 9 16 18 46 41 21 4 4 5 4 5 11 9 10 4 0 3 11 13 12 5 2 1
0 20 12 0 0 11 17 1 8 46 147 72 145 44 0 47 4 18 93 129 61 25 17 67 138 150 93 40 25 27 30 21 7 3 2 0 0 4 7 0 0 0 0 0
0 13 46 0 0 5 53 0 0 0 51 139 7 73 0 119 108 38 183 204 28 21 37 27 140 196 174 197 222 148 114 54 1 2 2 4 0 0 0 0 0 0 0 0
0 0 0 0 0 38 93 3 0 18 11 17 9 0 0 10 51 9 63 294 132 73 61 67 18 25 87 104 147 138 145 41 22 43 30 0 0 0 0 0 0 0 0 0
0 0 0 0 0 0 0 0 1 12 38 38 49 0 0 1 1 1 5 67 92 84 11 3 19 33 25 37 70 87 158 84 67 73 34 6 0 0 0 0 0 0 0 0
0 0 0 0 0 0 2 12 50 50 22 81 154 42 50 45 23 1 0 0 78 97 43 3 22 24 50 29 65 63 89 59 72 58 92 47 0 0 0 0 0 0 0 0
0 0 0 0 0 24 23 30 0 7 35 3 2 45 25 1 0 0 0 0 0 0 0 0 0 0 1 16 15 46 56 26 86 54 87 70 1 0 0 0 0 0 0 0
0 0 0 0 0 0 37 4 5 2 47 0 0 1 1 0 1 29 0 0 0 0 0 0 0 0 0 0 48 20 6 0 43 109 117 79 19 1 0 0 0 0 3 1
0 0 0 0 0 0 0 0 0 0 0 0 0 0 0 0 0 0 0 1 0 0 0 0 0 0 0 0 1 6 4 0 7 189 171 124 38 13 8 0 0 0 2 0
0 0 0 0 0 0 0 0 0 0 0 0 0 0 7 0 0 0 0 0 0 0 0 0 0 0 0 0 0 0 0 0 0 98 228 218 203 64 3 2 0 2 0 0
0 0 0 0 0 2 0 7 6 0 0 0 0 0 1 8 0 0 0 0 0 0 0 0 0 0 0 0 0 0 0 0 0 24 199 221 206 140 80 7 0 0 0 0
0 0 6 0 0 0 0 0 0 0 0 0 0 0 0 0 0 0 0 0 0 0 0 0 0 0 0 0 0 0 0 0 0 8 109 211 201 168 109 0 0 0 0 0
0 9 1 1 0 0 0 0 0 0 1 0 0 0 0 0 0 0 0 0 0 0 0 0 0 0 0 0 0 0 0 3 0 6 104 145 118 55 0 0 0 0 0 7
1 0 59 44 0 1 0 0 0 4 1 3 2 0 0 0 0 0 0 0 0 0 0 0 0 0 0 3 1 0 1 2 14 93 49 5 0 0 0 0 0 0 4 3
CIN
0 0 0 0 0 0 0 0 0 0 0 0 0 0 0 0 0 0 0 0 0 0 0 0 -220 -99 -60 -28 -57 -69 -91 -68 -76 -36 -46 -46 -51 -78 -75 -29 -18 -35 -31 -16
0 0 0 0 0 0 0 0 0 0 0 0 0 0 0 0 0 0 0 0 0 0 0 0 -255 -106 -54 -53 -65 -48 -86 -98 -66 -49 -78 -107 -99 -79 -67 -64 -44 -23 -14 -13
0 0 0 0 0 0 0 0 0 0 0 0 0 0 0 0 0 0 0 0 0 0 0 0 0 -147 -62 -73 -40 -25 -40 -78 -78 -99 -90 -81 -89 -72 -53 -54 -26 -15 -9 -8
0 0 0 0 0 0 0 0 0 0 0 0 0 0 0 0 0 0 0 0 0 0 0 0 0 0 -16 -85 -19 -30 -21 -21 -10 -44 -49 -48 -64 -73 -61 -49 -34 -6 -1 -1
0 0 0 0 0 0 0 0 0 0 0 0 0 0 0 0 0 0 0 0 0 0 0 0 0 0 0 -175 -109 -68 -60 -45 -34 -1 -6 -14 -29 -50 -68 -41 -26 -17 -2 0
0 0 0 0 0 0 0 0 0 0 0 0 0 0 0 0 0 0 0 0 0 0 0 0 0 0 0 0 -210 -74 -38 -35 -32 -5 -2 0 -12 -25 -22 -13 -5 -9 -53 -4
0 0 0 0 0 0 0 0 0 0 0 0 0 0 0 0 0 0 0 0 0 0 0 0 0 0 0 0 -90 -120 -39 -4 -9 -7 -2 0 0 0 0 0 0 -3 -11 -1
0 0 0 0 0 0 0 0 0 0 0 0 0 0 0 0 0 0 0 0 0 0 0 0 0 0 0 0 0 0 -74 -22 -7 -3 0 0 0 0 -1 -27 -29 0 0 0
0 0 0 0 0 0 0 0 0 0 0 0 0 0 0 0 0 0 0 0 0 0 0 0 0 0 0 0 0 0 0 0 -1 -24 -33 -10 -4 -1 -34 -14 0 0 -2 0
0 0 0 0 0 0 0 0 0 0 0 0 0 0 0 0 0 0 0 0 0 0 0 0 0 0 0 0 0 0 0 0 0 0 0 0 -16 -8 0 0 0 0 0 0
-26 0 0 0 0 0 -1 0 -1 -1 0 0 0 0 0 -8 0 0 0 0 0 0 0 0 0 0 0 0 0 0 0 0 0 0 -7 -17 0 0 0 0 0 0 0 0
-14 -3 0 0 -1 -1 0 0 0 0 0 -1 0 0 0 0 0 0 -30 -68 0 -15 0 -73 -26 0 0 0 0 0 0 0 0 0 0 0 0 0 0 0 0 0 0 0
-13 -1 0 0 0 -1 0 0 0 0 0 0 0 0 0 0 0 0 -15 -39 -56 -70 -64 -39 -27 -47 -54 -11 0 0 0 0 0 0 0 0 0 -1 0 0 0 0 0 0
0 -1 0 0 0 -16 -1 -1 0 0 0 0 0 -1 0 -13 -15 -32 -26 -15 -26 -7 -5 -5 -4 -17 -21 -18 -17 -27 -36 0 0 0 0 0 0 -11 -4 0 0 0 0 0
0 0 0 0 0 -3 0 0 0 0 0 0 0 0 0 -1 -1 -8 -14 -6 -2 -5 -1 -4 -3 -5 -10 -5 -4 -5 -13 -14 0 0 0 0 0 0 0 0 0 0 0 0
0 0 0 0 0 -2 0 0 0 0 0 0 0 0 0 -22 -22 -64 -13 0 0 -2 -1 -1 -11 -3 -11 -25 -41 -35 -15 -45 -12 -7 -11 0 0 0 0 0 0 0 0 0
0 0 0 0 0 0 0 0 0 -8 0 0 0 0 0 -10 -5 -12 -16 -19 -5 -5 -23 -4 -7 -1 -8 -20 -47 -43 -62 -55 -18 -18 -23 -21 0 0 0 0 0 0 0 0
0 0 -1 0 0 0 0 0 -1 0 0 0 0 0 -6 -16 -26 0 0 0 -4 -2 -20 -30 -39 -15 -1 -37 -35 -66 -79 -92 -34 -47 -37 -44 0 0 0 0 0 0 0 0
0 0 0 0 0 0 -1 -4 -4 -1 -1 -5 -3 -2 -2 -1 0 0 0 0 0 0 0 0 0 0 -47 -70 -41 -66 -96 -140 -28 -42 -49 -49 -6 0 0 0 0 0 0 -1
0 0 0 0 0 0 -21 -8 -4 -5 0 -1 0 0 0 0 -3 0 0 0 0 0 0 0 0 0 0 0 -93 -144 -125 0 -53 -37 -48 -62 -76 -21 -5 0 0 0 0 0
0 0 0 0 0 0 -3 0 0 0 0 0 0 0 0 0 0 0 0 0 0 0 0 0 0 0 0 0 -146 -324 -43 0 -89 -41 -47 -41 -65 -81 -79 0 0 0 0 0
0 0 0 0 0 0 0 0 0 0 0 0 0 -4 -4 0 0 0 0 0 0 0 0 0 0 0 0 0 0 0 0 0 0 -72 -41 -28 -21 -14 -58 -17 0 -1 0 0
0 0 0 0 0 -9 0 -2 -5 0 0 0 -1 0 -1 -5 0 0 0 0 0 0 0 0 0 0 0 0 -8 0 0 0 0 -117 -53 -39 -37 -17 -9 -28 0 0 0 0
0 0 0 0 0 0 0 0 0 0 0 0 0 0 0 0 0 0 0 0 0 0 0 0 0 0 0 0 0 0 0 0 0 -123 -72 -42 -30 -27 -13 0 0 0 0 0
0 0 0 0 0 0 0 0 0 0 0 0 0 0 0 0 0 0 0 0 0 0 0 0 0 0 0 0 0 0 0 -9 -3 -128 -66 -46 -50 -46 0 0 0 0 0 0
0 0 0 0 0 0 0 0 0 0 0 0 0 0 0 0 0 0 0 0 0 0 0 0 0 0 0 -6 -1 -4 -20 -17 -127 -71 -52 -34 0 0 0 0 0 0 0 0
Wind_Speed
nan nan nan nan nan nan nan nan nan nan nan nan nan nan nan nan nan nan nan nan nan nan nan nan nan 28 29 27 33 36 35 34 34 35 39 41 41 43 45 44 48 51 52 51
nan nan nan nan nan nan nan nan nan nan nan nan nan nan nan nan nan nan nan nan nan nan nan nan nan 31 31 29 31 35 36 38 37 36 38 39 42 45 48 48 52 54 55 52
nan nan nan nan nan nan nan nan nan nan nan nan nan nan nan nan nan nan nan nan nan nan nan nan nan nan 30 29 34 36 37 40 38 39 41 45 46 49 47 49 51 50 48 50
nan nan nan nan nan nan nan nan nan nan nan nan nan nan nan nan nan nan nan nan nan nan nan nan nan nan nan 31 33 43 41 38 44 45 43 45 45 46 45 49 53 52 49 54
nan nan nan nan nan nan nan nan nan nan nan nan nan nan nan nan nan nan nan nan nan nan nan nan nan nan nan nan 47 48 52 50 48 50 49 51 55 56 56 56 58 58 57 nan
nan nan nan nan nan nan nan nan nan nan nan nan nan nan nan nan nan nan nan nan nan nan nan nan nan nan nan nan 50 51 53 55 56 57 61 63 63 61 59 58 58 nan nan nan
nan nan nan nan nan nan nan nan nan nan nan nan nan nan nan nan nan nan nan nan nan nan nan nan nan nan nan nan nan 55 56 57 58 59 60 61 63 62 63 61 60 61 nan nan
nan nan nan nan nan nan nan nan nan nan nan nan nan nan nan nan nan nan nan nan nan nan nan nan nan nan nan nan nan nan nan 60 56 57 59 58 62 60 58 nan nan nan nan nan
nan nan nan nan nan nan nan nan nan nan nan nan nan nan nan nan nan nan nan nan nan nan nan nan nan nan nan nan nan nan nan nan nan 60 nan 59 59 63 nan nan nan nan nan nan
nan nan nan nan nan nan nan nan nan nan nan nan nan nan nan nan nan nan nan nan nan nan nan nan nan nan nan nan nan nan nan nan nan nan nan nan nan nan nan nan nan nan nan nan
nan nan nan nan nan nan nan nan nan nan nan nan nan nan nan nan nan nan nan nan nan nan nan nan nan nan nan nan nan nan nan nan nan nan nan nan nan nan nan nan nan nan nan nan
nan nan nan nan nan nan nan nan nan 47 nan nan 46 nan nan nan nan nan nan nan nan nan nan nan nan nan nan nan nan nan nan nan nan nan nan nan nan nan nan nan nan nan nan nan
nan nan nan nan nan nan nan nan nan nan 37 nan nan nan nan nan nan nan nan nan nan nan nan nan nan nan nan nan nan nan nan nan nan nan nan nan nan nan nan nan nan nan nan nan
nan nan nan nan nan nan nan nan nan nan 43 nan 37 nan nan nan nan nan nan 52 nan nan nan nan 47 52 nan nan nan nan nan nan nan nan nan nan nan nan nan nan nan nan nan nan
nan nan nan nan nan nan nan nan nan nan nan 38 nan nan nan 38 46 nan 41 44 nan nan nan nan 46 47 45 44 50 48 51 nan nan nan nan nan nan nan nan nan nan nan nan nan
nan nan nan nan nan nan nan nan nan nan nan nan nan nan nan nan nan nan nan 40 44 nan nan nan nan nan nan 47 47 53 45 nan nan nan nan nan nan nan nan nan nan nan nan nan
nan nan nan nan nan nan nan nan nan nan nan nan nan nan nan nan nan nan nan nan nan nan nan nan nan nan nan nan nan nan 42 nan nan nan nan nan nan nan nan nan nan nan nan nan
nan nan nan nan nan nan nan nan nan nan nan nan 33 nan nan nan nan nan nan nan nan nan nan nan nan nan nan nan nan nan nan nan nan nan nan nan nan nan nan nan nan nan nan nan
nan nan nan nan nan nan nan nan nan nan nan nan nan nan nan nan nan nan nan nan nan nan nan nan nan nan nan nan nan nan nan nan nan nan nan nan nan nan nan nan nan nan nan nan
nan nan nan nan nan nan nan nan nan nan nan nan nan nan nan nan nan nan nan nan nan nan nan nan nan nan nan nan nan nan nan nan nan 37 38 nan nan nan nan nan nan nan nan nan
nan nan nan nan nan nan nan nan nan nan nan nan nan nan nan nan nan nan nan nan nan nan nan nan nan nan nan nan nan nan nan nan nan 38 40 39 nan nan nan nan nan nan nan nan
nan nan nan nan nan nan nan nan nan nan nan nan nan nan nan nan nan nan nan nan nan nan nan nan nan nan nan nan nan nan nan nan nan nan 40 39 40 nan nan nan nan nan nan nan
nan nan nan nan nan nan nan nan nan nan nan nan nan nan nan nan nan nan nan nan nan nan nan nan nan nan nan nan nan nan nan nan nan nan 40 40 40 39 nan nan nan nan nan nan
nan nan nan nan nan nan nan nan nan nan nan nan nan nan nan nan nan nan nan nan nan nan nan nan nan nan nan nan nan nan nan nan nan nan 47 41 40 37 39 nan nan nan nan nan
nan nan nan nan nan nan nan nan nan nan nan nan nan nan nan nan nan nan nan nan nan nan nan nan nan nan nan nan nan nan nan nan nan nan 43 39 37 nan nan nan nan nan nan nan
nan nan nan nan nan nan nan nan nan nan nan nan nan nan nan nan nan nan nan nan nan nan nan nan nan nan nan nan nan nan nan nan nan nan nan nan nan nan nan nan nan nan nan nan
Wind_Direction
nan nan nan nan nan nan nan nan nan nan nan nan nan nan nan nan nan nan nan nan nan nan nan nan nan 301 303 302 296 295 297 297 287 284 278 267 269 263 260 260 265 267 271 273
nan nan nan nan nan nan nan nan nan nan nan nan nan nan nan nan nan nan nan nan nan nan nan nan nan 294 298 299 302 299 297 293 291 284 278 276 276 272 273 271 269 268 271 276
nan nan nan nan nan nan nan nan nan nan nan nan nan nan nan nan nan nan nan nan nan nan nan nan nan nan 291 297 293 289 289 291 289 286 283 276 272 269 271 273 269 271 271 274
nan nan nan nan nan nan nan nan nan nan nan nan nan nan nan nan nan nan nan nan nan nan nan nan nan nan nan 287 283 287 286 286 286 283 278 282 270 267 265 273 272 271 267 272
nan nan nan nan nan nan nan nan nan nan nan nan nan nan nan nan nan nan nan nan nan nan nan nan nan nan nan nan 261 267 271 268 266 273 273 268 262 264 265 263 265 267 268 nan
nan nan nan nan nan nan nan nan nan nan nan nan nan nan nan nan nan nan nan nan nan nan nan nan nan nan nan nan 267 265 265 265 266 267 270 272 274 273 272 274 275 nan nan nan
nan nan nan nan nan nan nan nan nan nan nan nan nan nan nan nan nan nan nan nan nan nan nan nan nan nan nan nan nan 274 270 266 264 264 268 272 276 278 279 277 278 280 nan nan
nan nan nan nan nan nan nan nan nan nan nan nan nan nan nan nan nan nan nan nan nan nan nan nan nan nan nan nan nan nan nan 282 276 273 271 270 273 274 277 nan nan nan nan nan
nan nan nan nan nan nan nan nan nan nan nan nan nan nan nan nan nan nan nan nan nan nan nan nan nan nan nan nan nan nan nan nan nan 277 nan 270 269 270 nan nan nan nan nan nan
nan nan nan nan nan nan nan nan nan nan nan nan nan nan nan nan nan nan nan nan nan nan nan nan nan nan nan nan nan nan nan nan nan nan nan nan nan nan nan nan nan nan nan nan
nan nan nan nan nan nan nan nan nan nan nan nan nan nan nan nan nan nan nan nan nan nan nan nan nan nan nan nan nan nan nan nan nan nan nan nan nan nan nan nan nan nan nan nan
nan nan nan nan nan nan nan nan nan 272 nan nan 274 nan nan nan nan nan nan nan nan nan nan nan nan nan nan nan nan nan nan nan nan nan nan nan nan nan nan nan nan nan nan nan
nan nan nan nan nan nan nan nan nan nan 277 nan nan nan nan nan nan nan nan nan nan nan nan nan nan nan nan nan nan nan nan nan nan nan nan nan nan nan nan nan nan nan nan nan
nan nan nan nan nan nan nan nan nan nan 272 nan 277 nan nan nan nan nan nan 292 nan nan nan nan 292 294 nan nan nan nan nan nan nan nan nan nan nan nan nan nan nan nan nan nan
nan nan nan nan nan nan nan nan nan nan nan 274 nan nan nan 269 272 nan 289 289 nan nan nan nan 293 290 290 291 290 282 286 nan nan nan nan nan nan nan nan nan nan nan nan nan
nan nan nan nan nan nan nan nan nan nan nan nan nan nan nan nan nan nan nan 281 280 nan nan nan nan nan nan 282 291 290 290 nan nan nan nan nan nan nan nan nan nan nan nan nan
nan nan nan nan nan nan nan nan nan nan nan nan nan nan nan nan nan nan nan nan nan nan nan nan nan nan nan nan nan nan 289 nan nan nan nan nan nan nan nan nan nan nan nan nan
nan nan nan nan nan nan nan nan nan nan nan nan 288 nan nan nan nan nan nan nan nan nan nan nan nan nan nan nan nan nan nan nan nan nan nan nan nan nan nan nan nan nan nan nan
nan nan nan nan nan nan nan nan nan nan nan nan nan nan nan nan nan nan nan nan nan nan nan nan nan nan nan nan nan nan nan nan nan nan nan nan nan nan nan nan nan nan nan nan
nan nan nan nan nan nan nan nan nan nan nan nan nan nan nan nan nan nan nan nan nan nan nan nan nan nan nan nan nan nan nan nan nan 292 295 nan nan nan nan nan nan nan nan nan
nan nan nan nan nan nan nan nan nan nan nan nan nan nan nan nan nan nan nan nan nan nan nan nan nan nan nan nan nan nan nan nan nan 281 287 293 nan nan nan nan nan nan nan nan
nan nan nan nan nan nan nan nan nan nan nan nan nan nan nan nan nan nan nan nan nan nan nan nan nan nan nan nan nan nan nan nan nan nan 289 288 284 nan nan nan nan nan nan nan
nan nan nan nan nan nan nan nan nan nan nan nan nan nan nan nan nan nan nan nan nan nan nan nan nan nan nan nan nan nan nan nan nan nan 287 286 284 290 nan nan nan nan nan nan
nan nan nan nan nan nan nan nan nan nan nan nan nan nan nan nan nan nan nan nan nan nan nan nan nan nan nan nan nan nan nan nan nan nan 284 279 282 291 290 nan nan nan nan nan
nan nan nan nan nan nan nan nan nan nan nan nan nan nan nan nan nan nan nan nan nan nan nan nan nan nan nan nan nan nan nan nan nan nan 276 277 281 nan nan nan nan nan nan nan
nan nan nan nan nan nan nan nan nan nan nan nan nan nan nan nan nan nan nan nan nan nan nan nan nan nan nan nan nan nan nan nan nan nan nan nan nan nan nan nan nan nan nan nan